Location: Archemont
(49.1579°N, 1.7598°E)
Time: 20:19:29
(UTC+00:00)

ISS - Visible Passes

Search period start: 28 February 2024 00:00
Search period end: 09 March 2024 00:00
Orbit: 414 x 422 km, 51.6° (Epoch: 28 February)

Date Brightness Start Highest point End Pass type
(mag) Time Alt. Az. Time Alt. Az. Time Alt. Az.
28 Feb -2.7 04:21:04 44° NE 04:21:04 44° NE 04:23:42 10° ENE visible
28 Feb -3.6 05:54:00 10° WNW 05:57:23 73° NNE 06:00:46 10° E visible
29 Feb -0.7 03:35:01 16° ENE 03:35:01 16° ENE 03:35:47 10° ENE visible
29 Feb -3.4 05:07:57 29° WNW 05:09:27 61° N 05:12:49 10° E visible
01 Mar -3.0 04:21:53 51° NE 04:21:53 51° NE 04:24:49 10° E visible
01 Mar -3.7 05:54:58 10° WNW 05:58:21 68° SSW 06:01:43 10° ESE visible
02 Mar -0.8 03:35:48 18° ENE 03:35:48 18° ENE 03:36:47 10° ENE visible
02 Mar -3.8 05:08:44 28° WNW 05:10:24 90° N 05:13:48 10° ESE visible
03 Mar -3.5 04:22:41 66° ENE 04:22:41 66° ENE 04:25:47 10° E visible
03 Mar -2.8 05:55:56 10° W 05:59:02 33° SSW 06:02:07 10° SSE visible
04 Mar -1.0 03:36:39 18° E 03:36:39 18° E 03:37:41 10° E visible
04 Mar -3.4 05:09:35 27° W 05:11:05 48° SSW 05:14:22 10° SE visible
05 Mar -3.4 04:23:37 56° SSE 04:23:37 56° SSE 04:26:27 10° ESE visible
06 Mar -0.9 03:37:42 15° ESE 03:37:42 15° ESE 03:38:22 10° ESE visible
06 Mar -2.4 05:10:39 21° WSW 05:11:27 23° SW 05:14:13 10° SSE visible
07 Mar -2.1 04:24:51 23° SSE 04:24:51 23° SSE 04:26:33 10° SSE visible
08 Mar -1.3 05:12:09 10° SW 05:12:09 10° SW 05:12:11 10° SW visible
